Regional Weather Roundup
Issued by NWS Jackson, KY

Home | Current Version | Previous Version | Graphics & Text | Print | Product List | Glossary On
Versions: 1 2 3 4 5 6 7 8 9 10 11 12 13 14 15 16 17 18 19 20 21 22 23 24 25 26 27 28 29 30 31 32 33 34 35 36 37 38 39 40 41 42 43 44 45 46 47 48 49 50
400
ASUS43 KJKL 250410
RWRJKL

EAST KENTUCKY HOURLY WEATHER ROUNDUP
NATIONAL WEATHER SERVICE JACKSON KY
1200 AM EDT SAT MAR 25 2017

NOTE: "FAIR" INDICATES FEW OR NO CLOUDS BELOW 12,000 FEET WITH
NO SIGNIFICANT WEATHER AND/OR OBSTRUCTIONS TO VISIBILITY.

* THESE REPORTS ARE NOT UNDER NWS QUALITY CONTROL AND MAY NOT
  REPORT WEATHER SUCH AS PRECIPITATION AND FOG.

KYZ079-080-083-085-087-088-110-112-115-119-120-250500
...EASTERN KENTUCKY...

CITY           SKY/WX    TMP DP  RH WIND       PRES   REMARKS
JACKSON        CLOUDY    64  48  56 VRB6      30.21F
LONDON         MOCLDY    62  46  55 S7        30.21F
SOMERSET*      CLOUDY    61  46  59 S7        30.21F
MONTICELLO*    CLOUDY    64  49  57 E7        30.20F
WILLIAMSBURG*  MOCLDY    61  48  63 S10       30.21F
MIDDLESBORO*   MOCLDY    63  47  57 S3        30.25F
HARLAN APT*    CLOUDY    61  45  55 CALM      30.26F
PIKE CO APT*     N/A     64  49  58 SW3       30.23F
BIG SANDY APT* MOCLDY    66  49  54 SW10G18   30.22S
MOREHEAD APT*  CLOUDY    66  48  52 S10       30.18F
ASHLAND*       CLOUDY    55  52  88 CALM      30.14F
$$

KYZ035-036-041-042-044-050-067-078-099-250500
...CENTRAL KENTUCKY...

CITY           SKY/WX    TMP DP  RH WIND       PRES   REMARKS
MT STERLING*   CLOUDY    63  50  63 SW9       30.19S
FLEMING/MASON* MOCLDY    64  50  59 SW12G17   30.17R
DANVILLE*      CLOUDY    61  48  63 SW10      30.18R
LEXINGTON      CLOUDY    63  49  60 S10       30.17R
FRANKFORT      CLOUDY    65  49  56 S7        30.15R
LOUISVILLE     PTCLDY    69  50  50 S9        30.13S
GLASGOW*       CLOUDY    65  50  58 S9        30.14F
BOWLING GREEN  CLOUDY    68  52  56 S10       30.13S
$$

KYZ091>093-OHZ055-061-077-WVZ005-015-034-035-042-250500
...SOUTHERN OHIO/WEST VIRGINIA...

CITY           SKY/WX    TMP DP  RH WIND       PRES   REMARKS
COVINGTON      CLOUDY    65  52  62 SW8       30.14S
COLUMBUS       MOCLDY    63  52  67 S5        30.13S
DAYTON         CLOUDY    63  52  67 SW12      30.13R
WILMINGTON     MOCLDY    62  52  69 SW8       30.14R
HUNTINGTON     CLOUDY    68  48  48 S8        30.17F
CHARLESTON     PTCLDY    67  46  47 S8        30.18S
PINEVILLE*     CLOUDY    53  46  76 MISG      30.30S
BECKLEY        CLOUDY    61  45  55 SW7       30.27S
BLUEFIELD      PTCLDY    58  43  57 S5        30.30F
LOGAN CO APT*    N/A     64  48  55 CALM      30.23S
$$

VAZ002-007-008-TNZ017-027-036-066-071-250500
...SOUTHWEST VIRGINIA/EAST TENNESSEE...

CITY           SKY/WX    TMP DP  RH WIND       PRES   REMARKS
WISE*          CLOUDY    59  45  58 CALM      30.30F
JONESVILLE*      N/A     55  48  76 CALM      30.29F
ABINGDON*      PTCLDY    60  47  62 W5        30.31S
BRISTOL        MOCLDY    57  46  66 CALM      30.30S
MORRISTOWN*    CLOUDY    61  48  63 S3        30.26F
SEVIERVILLE*   CLEAR     61  45  55 SE3       30.25F
KNOXVILLE      CLOUDY    63  45  51 SE6       30.23F
LAFOLLETTE*    PTCLDY    63  46  55 SE3       30.27F
OAK RIDGE      PTCLDY    62  46  55 W3        30.26F
CROSSVILLE     CLOUDY    61  45  55 S9        30.23F
NASHVILLE      MOCLDY    66  52  60 SE9       30.15F
$$

...KEY TO REMARKS...
VSB - VISIBILITY IN MILES
WCI - WIND CHILL INDEX
HX  - HEAT INDEX

$$




USA.gov is the U.S. government's official web portal to all federal, state and local government web resources and services.